User: anonymous   Login
Location: Carlisle
(34.5501°N, 84.5969°W)
Time: 03:46:47
(UTC+00:00)
Language:

XW-2A - Orbit

View from above orbital plane
View from above orbital plane
View from above satellite
View from above satellite

Ground track
Ground track

The orbit data is extracted from the following two-line orbital elements,

1 40903U 15049E   23087.74647323  .00311688  37981-4  10032-2 0  9998
2 40903  97.1219 155.1376 0005223 163.8387 345.2472 15.90892769423689
Epoch (UTC): 28 March 2023 17:54:55
Eccentricity: 0.0005223
inclination: 97.1219°
perigee height: 296 km
apogee height: 303 km
right ascension of ascending node: 155.1376°
argument of perigee: 163.8387°
revolutions per day: 15.90892769
mean anomaly at epoch: 345.2472°
orbit number at epoch: 42368

The dashed part of the orbit path shows where the satellite is in the earth's shadow,  

DLR